Regional Weather Roundup
Issued by NWS

Home | Current Version | Previous Version | Graphics & Text | Print | Product List | Glossary Off
Versions: 1 2 3 4 5 6 7 8 9 10 11 12 13 14 15 16 17 18 19 20 21 22 23 24 25 26 27 28 29 30 31 32 33 34 35 36 37 38 39 40 41 42 43 44 45 46 47 48 49 50

000
ASUS43 KDMX 010204
RWRIA

WEATHER ROUNDUP FOR IOWA
NATIONAL WEATHER SERVICE DES MOINES IA
  ISSUED BY NWS QUAD CITIES IA IL
800 PM CST SAT JAN 31 2015

NOTE: "FAIR" INDICATES FEW OR NO CLOUDS BELOW 12,000 FEET WITH NO
SIGNIFICANT WEATHER AND/OR OBSTRUCTIONS TO VISIBILITY.

* - THESE STATIONS ARE NOT NWS STATIONS...THUS NOT UNDER NWS
QUALITY CONTROL.  THEY ALSO DO NOT REPORT WEATHER SUCH
AS PRECIPITATION OR FOG.

IAZ001>003-012>014-020>022-031>034-043>046-010300-
   NORTHWEST IOWA

CITY           SKY/WX    TMP DP  RH WIND       PRES   REMARKS
CARROLL *      LGT SNOW  32  32 100 E12       29.98F WCI  23
CHEROKEE *     LGT SNOW  30  30 100 NE10G16   30.00F WCI  21
DENNISON *     LGT SNOW  32  32 100 E8        29.95F WCI  25
LE MARS *      LGT SNOW  30  28  93 NE15      30.00F WCI  19
ORANGE CITY *  LGT SNOW  28  27  93 E13G18    30.00S VSB 1   WCI  18
SIOUX CITY     LGT SNOW  32  30  92 E13       29.97F VSB 1   WCI  22
SPENCER        LGT SNOW  29  26  89 NE21      30.03F VSB 1   WCI  16
$$

IAZ055>058-069>071-079>083-090>094-010300-
   SOUTHWEST IOWA

CITY           SKY/WX    TMP DP  RH WIND       PRES   REMARKS
ATLANTIC *     LGT SNOW  32  32 100 CALM      29.95F
AUDUBON *      LGT SNOW  34  30  86 E3        29.98S
CLARINDA *     LGT SNOW  34  34 100 SE8G17    29.97F WCI  27
COUNCIL BLFS * LGT SNOW  32  32 100 SE7       29.93S WCI  26
CRESTON *      CLOUDY    32  32 100 SE14      29.96F FOG     WCI  22
HARLAN *       LGT SNOW  32  32 100 E6        29.99F WCI  26
LAMONI         LGT SNOW  33  32  96 SE10      29.98F VSB 1   WCI  25
$$

IAZ047>049-059>061-072>074-084-010300-
   CENTRAL IOWA

CITY           SKY/WX    TMP DP  RH WIND       PRES   REMARKS
AMES           LGT SNOW  32  31  96 E6        30.03F VSB 3/4 WCI  26
ANKENY *       LGT SNOW  32  32 100 E3        30.02F
BOONE *        LGT SNOW  32  32 100 MISG      30.00F
CHARITON *     LGT SNOW  34  32  93 SE13      30.01F WCI  25
DES MOINES     LGT SNOW  34  32  92 E6        30.01F VSB 3/4 WCI  29
GRINNELL *     LGT RAIN  33  33  97 E5        30.05F WCI  29
KNOXVILLE *    LGT SNOW  32  32 100 SE9       30.01F WCI  24
MARSHALLTOWN   LGT SNOW  32  32 100 E7        30.04S VSB 3/4 WCI  26
PELLA *        HVY RAIN  33  32  99 SE7       30.05F WCI  26
PERRY *        LGT SNOW  33  33 100 E7        30.01F VSB 1   WCI  26
$$

IAZ004>006-015-016-023>025-035-036-010300-
   NORTH CENTRAL IOWA

CITY           SKY/WX    TMP DP  RH WIND       PRES   REMARKS
ALGONA *       LGT SNOW  30  30 100 NE14      30.05S VSB 3/4 WCI  20
CLARION *      LGT SNOW  30  30 100 E15       30.03F VSB 3/4 WCI  19
ESTHERVILLE    LGT SNOW  26  25  96 NE20      30.05S VSB 3/4 WCI  12
FORT DODGE *   CLOUDY    32  30  93 CALM      30.02F
MASON CITY     LGT SNOW  29  27  92 NE16      30.07F VSB 1   WCI  17
WEBSTER CITY * LGT SNOW  32  32 100 SE7       30.00F WCI  26
IOWA FALLS *   LGT SNOW  32  32  99 E5        30.04F WCI  28
$$

IAZ007>011-017>019-026>030-037>042-050>054-066-010300-
   NORTHEAST IOWA

CITY           SKY/WX    TMP DP  RH WIND       PRES   REMARKS
CEDAR RAPIDS   LGT SNOW  32  32 100 SE5       30.07F FOG     WCI  27
CHARLES CITY * LGT SNOW  28  30 100 E15       30.08F WCI  17
CLINTON *      CLOUDY    32  30  93 SE6       30.15S WCI  26
DECORAH *      LGT SNOW  28  28 100 NE7       30.10F WCI  21
DUBUQUE        LGT SNOW  30  28  92 E9        30.10F FOG     WCI  22
MONTICELLO *   LGT SNOW  32  32 100 E3        30.09F
OELWEIN *      LGT SNOW  30  30 100 E13       30.08S WCI  20
WATERLOO       LGT SNOW  32  32 100 E13       30.06F VSB 1   WCI  22
$$

IAZ064-065-067-068-078-010300-
   EAST CENTRAL IOWA

CITY           SKY/WX    TMP DP  RH WIND       PRES   REMARKS
DAVENPORT      LGT SNOW  32  30  92 SE6       30.12S FOG     WCI  26
IOWA CITY      LGT RAIN  34  33  96 SE8       30.11S FOG     WCI  27
MT. PLEASANT * RAIN      34  34 100 S7        30.11F WCI  28
MUSCATINE *    MIX PCPN  34  34 100 S6        30.13S WCI  29
QUAD CITIES    RAIN      34  32  92 S8        30.12F FOG     WCI  27
$$

IAZ062-063-075>077-085>089-095>099-010300-
   SOUTHEAST IOWA

CITY           SKY/WX    TMP DP  RH WIND       PRES   REMARKS
BURLINGTON     MIX PCPN  35  34  96 S9        30.11F FOG     WCI  28
FAIRFIELD *    MIX PCPN  34  32  93 S10       30.08F WCI  26
FORT MADISON * LGT RAIN  34  34 100 SE8       30.12F WCI  27
KEOKUK *       LGT RAIN  34  34 100 SE8       30.11S WCI  27
OTTUMWA        LGT SNOW  32  32 100 SE7       30.06F VSB 1   WCI  26
WASHINGTON *   CLOUDY    36  36 100 SE10      30.09F FOG     WCI  28
$$

ABBREVIATIONS USED IN REMARKS
   TC - TEMPERATURES IN CELSIUS
  WCI - WIND CHILL INDEX
   HX - HEAT INDEX
  VSB - VISIBILITY
$$



USA.gov is the U.S. government's official web portal to all federal, state and local government web resources and services.